GW0799 Weather Reports


time (UTC)temp
F
wind
direction
speed
knots
gust
knots
rain 1hr
in
rain 24hr
in
rain mn
in
humidity
%
barometer
mb
20260906232628 66 329 0.0 0.0 0.00 0.57 0.57 73 1147.7
20260906232123 66 277 0.0 0.0 0.00 0.57 0.57 72 1147.7
20260906231618 65 356 0.0 0.0 0.00 0.57 0.57 73 1147.8
20260906231113 65 310 0.0 0.0 0.00 0.57 0.57 74 1148.3
20260906230612 65 307 0.0 0.0 0.00 0.57 0.57 74 1148.4
20260906230106 64 283 0.0 0.0 0.00 0.57 0.57 75 1148.4
20260906225600 64 312 0.0 0.0 0.00 0.57 0.57 74 1148.6
20260906225056 65 337 0.0 0.0 0.00 0.57 0.57 74 1148.5
20260906224552 65 317 0.0 0.0 0.00 0.57 0.57 74 1148.5
20260906224049 63 282 0.0 0.0 0.00 0.57 0.57 76 1148.5
20260906223544 63 309 0.0 0.0 0.00 0.57 0.57 77 1148.7
20260906223043 63 288 0.0 0.0 0.00 0.57 0.57 77 1148.6
20260906222543 63 283 0.0 0.0 0.00 0.57 0.57 78 1148.7
20260906222040 62 269 0.0 0.0 0.00 0.57 0.57 79 1148.6
20260906221539 63 308 0.0 0.0 0.00 0.57 0.57 78 1148.5
20260906221034 62 290 0.0 0.0 0.00 0.57 0.57 78 1148.8
20260906220529 62 253 0.0 0.0 0.00 0.57 0.57 78 1148.8
20260906220025 62 274 0.0 0.0 0.00 0.57 0.57 79 1148.9
20260906215523 62 283 0.0 0.0 0.00 0.57 0.57 78 1148.8
20260906215021 62 232 0.0 0.0 0.00 0.57 0.57 80 1148.9
20260906214520 62 225 0.0 0.0 0.00 0.57 0.57 81 1148.8
20260906214015 62 222 0.0 0.0 0.00 0.57 0.57 80 1148.6
20260906213514 62 234 0.0 0.0 0.00 0.57 0.57 81 1148.6
20260906213009 62 251 0.0 0.0 0.00 0.57 0.57 80 1148.7
20260906212502 62 276 0.0 0.0 0.00 0.57 0.57 78 1148.7
20260906211958 62 354 0.0 0.0 0.00 0.57 0.57 80 1148.8
20260906211452 62 326 0.0 0.0 0.00 0.57 0.57 80 1148.6
20260906210947 62 295 0.0 0.0 0.00 0.57 0.57 79 1148.7
20260906210442 62 232 0.0 0.0 0.00 0.57 0.57 80 1148.7
20260906205936 62 282 0.0 0.0 0.00 0.57 0.57 81 1148.6
20260906205433 62 291 0.0 0.0 0.00 0.57 0.57 79 1148.7
20260906204929 62 281 0.0 0.0 0.00 0.57 0.57 80 1148.8
20260906204428 62 255 0.0 0.0 0.00 0.57 0.57 80 1148.6
20260906203927 62 323 0.0 0.0 0.00 0.57 0.57 79 1148.7
20260906203422 62 242 0.0 0.0 0.00 0.57 0.57 80 1148.6
20260906202920 62 222 0.0 0.0 0.00 0.57 0.57 81 1148.7
20260906202419 62 219 0.0 0.0 0.00 0.57 0.57 79 1148.8
20260906201914 62 230 0.0 0.0 0.00 0.57 0.57 78 1148.8
20260906201408 62 209 0.0 0.0 0.00 0.57 0.57 78 1148.9
20260906200903 62 221 0.0 0.0 0.00 0.57 0.57 78 1148.9
20260906200359 62 225 0.0 0.0 0.00 0.57 0.57 78 1148.8
20260906195854 62 211 0.0 0.0 0.00 0.57 0.57 79 1148.8
20260906195351 62 201 0.0 0.0 0.00 0.57 0.57 79 1148.9
20260906194846 62 216 0.0 0.0 0.00 0.57 0.57 79 1148.8
20260906194342 62 234 0.0 0.0 0.00 0.57 0.57 77 1148.7
20260906193837 62 252 0.0 0.0 0.00 0.57 0.57 77 1148.7
20260906193332 62 283 0.0 0.0 0.00 0.57 0.57 78 1148.9
20260906192827 63 307 0.0 0.0 0.00 0.57 0.57 76 1148.9
20260906192321 62 255 0.0 0.0 0.00 0.57 0.57 77 1148.9
20260906191821 62 302 0.0 0.0 0.00 0.57 0.57 76 1148.9
20260906191315 63 327 0.0 0.0 0.00 0.57 0.57 76 1148.9
20260906190810 62 261 0.0 0.0 0.00 0.57 0.57 77 1148.9
20260906190309 63 255 0.0 0.0 0.00 0.57 0.57 77 1149.0
20260906185809 63 285 0.0 0.0 0.00 0.57 0.57 78 1148.9
20260906185308 62 310 0.0 0.0 0.00 0.57 0.57 77 1149.0
20260906184803 62 334 0.0 0.0 0.00 0.57 0.57 78 1149.1
20260906184258 63 352 0.0 0.0 0.00 0.57 0.57 77 1148.9
20260906183753 62 36 0.0 0.0 0.00 0.57 0.57 79 1148.9
20260906183249 63 43 0.0 0.0 0.00 0.57 0.57 78 1148.7
20260906182744 63 40 0.0 0.0 0.00 0.57 0.57 81 1148.8
20260906182240 62 49 0.0 0.0 0.00 0.57 0.57 82 1148.7
20260906181734 62 57 0.0 0.0 0.00 0.57 0.57 83 1148.9
20260906181226 61 39 0.0 0.0 0.00 0.57 0.57 83 1148.6
20260906180725 59 38 0.0 0.0 0.00 0.57 0.57 85 1149.0
20260906180220 58 25 0.0 0.0 0.00 0.57 0.57 87 1149.3
20260906175718 58 37 0.0 0.0 0.00 0.57 0.57 89 1149.5
20260906175214 57 27 0.0 0.0 0.00 0.57 0.57 89 1149.6
20260906174712 57 359 0.0 0.0 0.00 0.57 0.57 90 1149.7
20260906174207 57 32 0.0 0.0 0.00 0.57 0.57 92 1150.0
20260906173702 56 36 0.0 0.0 0.00 0.57 0.57 92 1150.1
20260906173157 57 37 0.0 0.0 0.00 0.57 0.57 94 1150.1
20260906172657 57 23 0.0 0.0 0.00 0.57 0.57 94 1150.1
20260906172153 56 23 0.0 0.0 0.00 0.57 0.57 94 1150.5
20260906171652 56 61 0.0 0.0 0.07 0.57 0.57 96 1150.2
20260906171148 55 42 0.0 0.0 0.07 0.57 0.57 96 1149.8
20260906170644 54 54 0.0 0.0 0.00 0.56 0.56 96 1149.8
20260906170143 54 34 0.0 0.0 0.05 0.56 0.56 97 1150.8
20260906165639 54 346 0.0 0.0 0.05 0.56 0.56 96 1150.9
20260906165135 54 346 0.0 0.0 0.00 0.55 0.55 96 1150.9
20260906164633 55 326 0.0 0.0 0.00 0.55 0.55 96 1151.3
20260906164129 54 331 0.0 0.0 0.00 0.55 0.55 95 1151.3
20260906163625 54 299 0.0 0.0 0.00 0.55 0.55 96 1151.3
20260906163121 55 315 0.0 0.0 0.00 0.55 0.55 96 1151.5
20260906162618 55 307 0.0 0.0 0.00 0.55 0.55 96 1151.0
20260906162112 55 330 0.0 0.0 0.00 0.55 0.55 97 1150.8
20260906161607 55 1 0.0 0.0 0.00 0.55 0.55 96 1150.9
20260906161106 54 36 0.0 0.0 0.00 0.55 0.55 96 1150.7
20260906160605 55 33 0.0 0.0 0.00 0.55 0.55 96 1150.6
20260906160104 55 35 0.0 0.0 0.00 0.55 0.55 96 1150.5
20260906155601 54 359 0.0 0.0 0.00 0.55 0.55 97 1150.8
20260906155058 54 13 0.0 0.0 0.00 0.55 0.55 97 1150.9
20260906154553 54 24 0.0 0.0 0.00 0.55 0.55 97 1151.1
20260906154051 54 346 0.0 0.0 0.00 0.55 0.55 98 1151.1
20260906153550 54 355 0.0 0.0 0.00 0.55 0.55 98 1151.1
20260906153045 53 356 0.0 0.0 0.00 0.55 0.55 98 1151.3
20260906152544 53 338 0.0 0.0 0.00 0.55 0.55 98 1151.2
20260906152039 53 324 0.0 0.0 0.00 0.55 0.55 98 1151.5
20260906151535 53 317 0.0 0.0 0.00 0.55 0.55 98 1151.2
20260906151030 53 356 0.0 0.0 0.00 0.55 0.55 99 1151.5
20260906150525 53 355 0.0 0.0 0.00 0.55 0.55 99 1151.6
20260906150020 53 352 0.0 0.0 0.00 0.55 0.55 99 1151.5
20260906145519 52 338 0.0 0.0 0.00 0.55 0.55 99 1151.9
20260906145015 52 299 0.0 0.0 0.00 0.55 0.55 99 1151.9
20260906144509 53 341 0.0 0.0 0.07 0.55 0.55 99 1152.0
20260906144004 53 312 0.0 0.0 0.24 0.55 0.55 99 1151.9
20260906143459 52 342 0.0 0.0 0.47 0.54 0.54 98 1151.9
20260906142955 52 323 0.0 0.0 0.61 0.51 0.51 98 1151.9
20260906142455 52 330 0.0 0.0 0.47 0.46 0.46 98 1152.2
20260906141949 53 289 0.0 0.0 0.47 0.41 0.41 98 1152.5
20260906141443 53 290 0.0 0.0 0.38 0.38 0.38 97 1152.1
20260906140938 54 310 0.0 0.0 0.19 0.33 0.33 97 1152.3
20260906140433 54 292 0.0 0.0 0.12 0.32 0.32 96 1152.1
20260906135931 55 279 0.0 0.0 0.00 0.30 0.30 95 1151.9
20260906135430 55 302 0.0 0.0 0.00 0.30 0.30 95 1151.6
20260906134926 55 281 0.0 0.0 0.00 0.30 0.30 95 1151.2
20260906134421 55 245 0.0 0.0 0.00 0.30 0.30 95 1151.3
20260906133916 55 223 0.0 0.0 0.00 0.30 0.30 94 1151.0
20260906133412 56 236 0.0 0.0 0.00 0.30 0.30 93 1151.0
20260906132907 55 266 0.0 0.0 0.00 0.30 0.30 94 1151.1
20260906132402 56 257 0.0 0.0 0.00 0.30 0.30 94 1151.0
20260906131858 56 31 0.0 0.0 0.00 0.30 0.30 93 1150.8
20260906131353 55 116 0.0 0.0 0.00 0.30 0.30 93 1150.8
20260906130849 55 149 0.0 0.0 0.00 0.30 0.30 93 1150.8
20260906130348 55 153 0.0 0.0 0.00 0.30 0.30 93 1150.9
20260906125847 55 277 0.0 0.0 0.00 0.30 0.30 92 1150.9
20260906125344 55 310 0.0 0.0 0.00 0.30 0.30 92 1150.8
20260906124839 55 312 0.0 0.0 0.00 0.30 0.30 92 1150.7
20260906124336 56 320 0.0 0.0 0.00 0.30 0.30 91 1151.1
20260906123835 56 340 0.0 0.0 0.00 0.30 0.30 90 1151.2
20260906123330 55 343 0.0 0.0 0.00 0.30 0.30 91 1151.5
20260906122829 55 329 0.0 0.0 0.00 0.30 0.30 92 1151.3
20260906122324 55 356 0.0 0.0 0.00 0.30 0.30 91 1151.7
20260906121821 55 309 0.0 0.0 0.00 0.30 0.30 91 1151.7
20260906121317 56 315 0.0 0.0 0.00 0.30 0.30 91 1151.2
20260906120813 55 334 0.0 0.0 0.00 0.30 0.30 92 1151.3
20260906120309 55 334 0.0 0.0 0.00 0.30 0.30 93 1151.5
20260906115805 54 320 0.0 0.0 0.00 0.30 0.30 94 1151.7
20260906115300 54 310 0.0 0.0 0.00 0.30 0.30 95 1151.8
20260906114759 54 305 0.0 0.0 0.00 0.30 0.30 94 1151.7
20260906114254 57 250 0.0 0.0 0.00 0.30 0.30 88 1151.7
20260906113749 56 78 0.0 0.0 0.00 0.30 0.30 84 1151.2
20260906113249 55 66 0.0 0.0 0.00 0.30 0.30 89 1150.9
20260906112748 55 91 0.0 0.0 0.00 0.30 0.30 90 1150.9
20260906112245 54 65 0.0 0.0 0.00 0.30 0.30 91 1151.0
20260906111739 53 74 0.0 0.0 0.00 0.30 0.30 94 1151.1
20260906111233 54 107 0.0 0.0 0.00 0.30 0.30 92 1151.3
20260906110728 55 82 0.0 0.0 0.00 0.30 0.30 90 1151.0
20260906110224 55 84 0.0 0.0 0.00 0.30 0.30 89 1150.9
20260906105723 55 57 0.0 0.0 0.00 0.30 0.30 89 1151.0
20260906105219 56 53 0.0 0.0 0.00 0.30 0.30 90 1150.9
20260906104719 56 39 0.0 0.0 0.00 0.30 0.30 90 1150.8
20260906104218 56 24 0.0 0.0 0.00 0.30 0.30 89 1150.9
20260906103716 56 20 0.0 0.0 0.00 0.30 0.30 88 1150.9
20260906103211 56 27 0.0 0.0 0.00 0.30 0.30 90 1151.5
20260906102706 56 14 0.0 0.0 0.00 0.30 0.30 90 1151.5
20260906102205 55 9 0.0 0.0 0.00 0.30 0.30 93 1151.1
20260906101700 55 355 0.0 0.0 0.00 0.30 0.30 94 1151.3
20260906101155 55 22 0.0 0.0 0.00 0.30 0.30 94 1151.3
20260906100651 55 40 0.0 0.0 0.00 0.30 0.30 95 1151.5
20260906100151 55 3 0.0 0.0 0.00 0.30 0.30 95 1151.3
20260906095646 55 340 0.0 0.0 0.00 0.30 0.30 95 1151.3
20260906095141 55 7 0.0 0.0 0.00 0.30 0.30 95 1151.5
20260906094640 55 345 0.0 0.0 0.00 0.30 0.30 95 1151.5
20260906094136 55 27 0.0 0.0 0.00 0.30 0.30 94 1151.2
20260906093632 55 28 0.0 0.0 0.00 0.30 0.30 94 1151.2
20260906093132 55 13 0.0 0.0 0.00 0.30 0.30 95 1151.6
20260906092627 55 347 0.0 0.0 0.00 0.30 0.30 96 1151.7
20260906092122 55 42 0.0 0.0 0.00 0.30 0.30 97 1151.5
20260906091618 55 17 0.0 0.0 0.00 0.30 0.30 97 1151.7
20260906091114 55 20 0.0 0.0 0.00 0.30 0.30 97 1151.8
20260906090609 55 36 0.0 0.0 0.00 0.30 0.30 97 1152.1
20260906090109 54 27 0.0 0.0 0.00 0.30 0.30 97 1152.1
20260906085608 54 0 0.0 0.0 0.24 0.30 0.30 97 1152.5
20260906085102 54 1 0.0 0.0 0.59 0.30 0.30 97 1152.9
20260906084557 55 300 0.0 0.0 0.42 0.26 0.26 96 1153.1
20260906084055 55 299 0.0 0.0 0.12 0.20 0.20 95 1153.2
20260906083552 55 349 0.0 0.0 0.28 0.19 0.19 94 1153.2
20260906083051 56 5 0.0 0.0 0.35 0.18 0.18 92 1152.7
20260906082547 56 19 0.0 0.0 0.38 0.14 0.14 92 1153.0
20260906082042 55 331 0.0 0.0 0.38 0.12 0.12 93 1153.4
20260906081538 55 291 0.0 0.0 0.07 0.07 0.07 94 1153.6
20260906081033 55 243 0.0 0.0 0.00 0.06 0.06 94 1153.1
20260906080530 55 315 0.0 0.0 0.00 0.06 0.06 94 1152.5
20260906080025 55 25 0.0 0.0 0.00 0.06 0.06 94 1151.5
20260906075519 55 349 0.0 0.0 0.00 0.06 0.06 94 1151.1
20260906075014 55 13 0.0 0.0 0.00 0.06 0.06 93 1151.3
20260906074509 55 351 0.0 0.0 0.00 0.06 0.06 94 1151.3
20260906074007 55 350 0.0 0.0 0.00 0.06 0.06 95 1152.2
20260906073502 55 308 0.0 0.0 0.00 0.06 0.06 95 1152.5
20260906072958 55 0 0.0 0.0 0.00 0.06 0.06 94 1152.6
20260906072453 55 22 0.0 0.0 0.00 0.06 0.06 94 1152.2
20260906071949 55 348 0.0 0.0 0.00 0.06 0.06 93 1151.9
20260906071446 55 12 0.0 0.0 0.00 0.06 0.06 93 1152.0
20260906070941 55 18 0.0 0.0 0.00 0.06 0.06 93 1151.8
20260906070437 55 16 0.0 0.0 0.00 0.06 0.06 92 1152.0
20260906065932 56 9 0.0 0.0 0.00 0.06 0.06 91 1152.0
20260906065426 55 356 0.0 0.0 0.00 0.06 0.06 90 1152.5
20260906064922 55 5 0.0 0.0 0.00 0.06 0.06 92 1152.3
20260906064419 55 342 0.0 0.0 0.00 0.06 0.06 91 1152.9
20260906063918 55 14 0.0 0.0 0.00 0.06 0.06 92 1152.5
20260906063414 55 359 0.0 0.0 0.00 0.06 0.06 93 1152.7
20260906062909 55 345 0.0 0.0 0.00 0.06 0.06 92 1152.7
20260906062409 55 353 0.0 0.0 0.05 0.06 0.06 93 1153.1
20260906061904 55 314 0.0 0.0 0.17 0.06 0.06 93 1153.2
20260906061400 55 3 0.0 0.0 0.31 0.05 0.05 93 1153.3
20260906060854 55 322 0.0 0.0 0.19 0.03 0.03 94 1153.7
20260906060352 55 332 0.0 0.0 0.00 0.00 0.00 93 1154.1
20260906055848 55 352 0.0 0.0 0.00 0.20 0.20 93 1153.7
20260906055343 55 348 0.0 0.0 0.00 0.20 0.20 92 1153.2
20260906054838 55 354 0.0 0.0 0.00 0.20 0.20 91 1153.0
20260906054333 55 334 0.0 0.0 0.00 0.20 0.20 92 1152.7
20260906053830 55 338 0.0 0.0 0.00 0.20 0.20 92 1152.6
20260906053325 55 15 0.0 0.0 0.00 0.20 0.20 92 1152.7
20260906052820 55 19 0.0 0.0 0.00 0.20 0.20 91 1152.8
20260906052317 55 21 0.0 0.0 0.00 0.20 0.20 92 1152.8
20260906051814 55 353 0.0 0.0 0.00 0.20 0.20 93 1153.0
20260906051313 54 4 0.0 0.0 0.00 0.20 0.20 94 1153.0
20260906050808 54 349 0.0 0.0 0.00 0.20 0.20 94 1153.1
20260906050304 55 8 0.0 0.0 0.00 0.20 0.20 93 1152.9
20260906045802 55 0 0.0 0.0 0.05 0.20 0.20 92 1152.9
20260906045257 55 350 0.0 0.0 0.05 0.20 0.20 92 1152.8
20260906044753 55 5 0.0 0.0 0.00 0.19 0.19 91 1153.1
20260906044248 56 346 0.0 0.0 0.00 0.19 0.19 89 1153.8
20260906043744 55 326 0.0 0.0 0.00 0.19 0.19 89 1153.2
20260906043240 55 0 0.0 0.0 0.00 0.19 0.19 89 1152.5
20260906042739 55 1 0.0 0.0 0.00 0.19 0.19 90 1152.3
20260906042238 55 350 0.0 0.0 0.00 0.19 0.19 91 1151.7
20260906041734 55 25 0.0 0.0 0.00 0.19 0.19 91 1151.8
20260906041229 55 22 0.0 0.0 0.00 0.19 0.19 91 1152.0
20260906040725 55 3 0.0 0.0 0.00 0.19 0.19 91 1152.0
20260906040220 55 12 0.0 0.0 0.00 0.19 0.19 90 1152.0
20260906035715 55 9 0.0 0.0 0.00 0.19 0.19 91 1152.3
20260906035211 55 21 0.0 0.0 0.07 0.19 0.19 91 1152.8
20260906034710 55 33 0.0 0.0 0.14 0.19 0.19 91 1152.8
20260906034205 55 2 0.0 0.0 0.24 0.18 0.18 92 1152.9
20260906033701 55 10 0.0 0.0 0.28 0.17 0.17 91 1152.1
20260906033200 56 352 0.0 0.0 0.19 0.14 0.14 89 1153.8
20260906032658 57 2 0.0 0.0 0.19 0.12 0.12 87 1154.2
20260906032152 57 333 0.0 0.0 0.12 0.11 0.11 85 1153.9
20260906031648 58 356 0.0 0.0 0.00 0.09 0.09 82 1153.6
20260906031143 60 349 0.0 0.0 0.00 0.09 0.09 76 1152.6
20260906030642 60 11 0.0 0.0 0.00 0.09 0.09 72 1152.2
20260906030138 60 358 0.0 0.0 0.00 0.09 0.09 72 1151.8
20260906025637 60 8 0.0 0.0 0.00 0.09 0.09 72 1151.5
20260906025136 60 18 0.0 0.0 0.00 0.09 0.09 72 1151.6
20260906024630 60 14 0.0 0.0 0.00 0.09 0.09 71 1151.3
20260906024125 60 1 0.0 0.0 0.00 0.09 0.09 71 1150.8
20260906023621 60 26 0.0 0.0 0.00 0.09 0.09 71 1150.7
20260906023121 60 0 0.0 0.0 0.00 0.09 0.09 71 1150.7
20260906022616 60 354 0.0 0.0 0.00 0.09 0.09 71 1150.6
20260906022112 60 355 0.0 0.0 0.00 0.09 0.09 71 1150.8
20260906021607 60 28 0.0 0.0 0.00 0.09 0.09 70 1150.6
20260906021106 61 32 0.0 0.0 0.00 0.09 0.09 70 1150.7
20260906020606 61 32 0.0 0.0 0.00 0.09 0.09 70 1150.8
20260906020101 61 356 0.0 0.0 0.00 0.09 0.09 70 1150.8
20260906015559 61 39 0.0 0.0 0.00 0.09 0.09 69 1150.7
20260906015054 61 16 0.0 0.0 0.00 0.09 0.09 70 1150.8
20260906014548 62 351 0.0 0.0 0.00 0.09 0.09 69 1150.8
20260906014045 62 349 0.0 0.0 0.00 0.09 0.09 69 1150.9
20260906013539 62 332 0.0 0.0 0.00 0.09 0.09 69 1150.9
20260906013035 62 12 0.0 0.0 0.00 0.09 0.09 68 1151.1
20260906012530 62 338 0.0 0.0 0.00 0.09 0.09 68 1150.9
20260906012029 63 340 0.0 0.0 0.00 0.09 0.09 68 1150.8
20260906011525 63 26 0.0 0.0 0.00 0.09 0.09 68 1150.8
20260906011025 63 357 0.0 0.0 0.00 0.09 0.09 67 1150.7
20260906010520 63 0 0.0 0.0 0.00 0.09 0.09 67 1150.9
20260906010016 63 359 0.0 0.0 0.00 0.09 0.09 67 1150.9
20260906005515 63 3 0.0 0.0 0.00 0.09 0.09 67 1150.8
20260906005014 63 24 0.0 0.0 0.00 0.09 0.09 66 1150.9
20260906004509 64 357 0.0 0.0 0.00 0.09 0.09 66 1150.9
20260906004004 64 3 0.0 0.0 0.00 0.09 0.09 65 1150.9
20260906003459 65 9 0.0 0.0 0.00 0.09 0.09 64 1151.0
20260906002954 65 18 0.0 0.0 0.00 0.09 0.09 64 1151.1
20260906002449 66 12 0.0 0.0 0.00 0.09 0.09 63 1151.1
20260906001944 66 344 0.0 0.0 0.00 0.09 0.09 61 1151.3
20260906001440 66 29 0.0 0.0 0.00 0.09 0.09 61 1151.2
20260906000934 66 355 0.0 0.0 0.00 0.09 0.09 61 1151.1
20260906000429 66 4 0.0 0.0 0.00 0.09 0.09 61 1151.2
20260905235919 67 0 0.0 0.0 0.00 0.09 0.09 58 1151.1
20260905235419 67 5 0.0 0.0 0.00 0.09 0.09 57 1151.5
20260905234914 67 346 0.0 0.0 0.00 0.09 0.09 58 1151.5
20260905234409 68 2 0.0 0.0 0.00 0.09 0.09 57 1151.3
20260905233904 68 315 0.0 0.0 0.00 0.09 0.09 57 1151.7
20260905233359 68 327 0.0 0.0 0.00 0.09 0.09 58 1151.6
20260905232858 68 327 0.0 0.0 0.00 0.09 0.09 58 1151.6